This is the latest recevied weather packets stored in our database for station/object DH4SBM. If no packets are shown the sender has not sent any weather packets the latest 10 day(s).
| Time | Temp. | Humidity | Pressure | Rain* | Wind** | Luminosity | Snow |
|---|---|---|---|---|---|---|---|
| 1788505709 | 21.67° C | 65% | 1019.6 hPa | 0 mm | - | 352 W/m² | - |
| 1788505108 | 21.67° C | 66% | 1019.6 hPa | 0 mm | - | 272 W/m² | - |
| 1788503908 | 21.11° C | 68% | 1019.6 hPa | 0 mm | - | 200 W/m² | - |
| 1788503310 | 20.56° C | 70% | 1019.7 hPa | 0 mm | - | 142 W/m² | - |
| 1788502710 | 20° C | 71% | 1019.8 hPa | 0 mm | - | 169 W/m² | - |
| 1788502110 | 20° C | 72% | 1019.8 hPa | 0 mm | - | 141 W/m² | - |
| 1788501509 | 19.44° C | 72% | 1019.8 hPa | 0 mm | - | 44 W/m² | - |
| 1788500909 | 19.44° C | 72% | 1019.7 hPa | 0 mm | - | 40 W/m² | - |
| 1788500309 | 18.89° C | 71% | 1019.8 hPa | 0 mm | - | 56 W/m² | - |
| 1788499709 | 18.89° C | 71% | 1019.8 hPa | 0 mm | - | 51 W/m² | - |
| 1788499109 | 18.89° C | 71% | 1019.7 hPa | 0 mm | - | 44 W/m² | - |
| 1788498508 | 18.89° C | 70% | 1019.6 hPa | 0 mm | - | 28 W/m² | - |
| 1788497908 | 18.89° C | 70% | 1019.6 hPa | 0 mm | - | 11 W/m² | - |
| 1788497308 | 18.89° C | 70% | 1019.7 hPa | 0 mm | - | 0 W/m² | - |
| 1788496708 | 19.44° C | 69% | 1019.6 hPa | 0 mm | - | 0 W/m² | - |
| 1788496110 | 19.44° C | 69% | 1019.7 hPa | 0 mm | - | 0 W/m² | - |
| 1788495510 | 19.44° C | 69% | 1019.7 hPa | 0 mm | - | 0 W/m² | - |
| 1788494909 | 19.44° C | 69% | 1019.8 hPa | 0 mm | - | 0 W/m² | - |
| 1788494308 | 19.44° C | 68% | 1019.9 hPa | 0 mm | - | 0 W/m² | - |
| 1788493708 | 20° C | 68% | 1020 hPa | 0 mm | - | 0 W/m² | - |
| 1788493108 | 20° C | 68% | 1020.1 hPa | 0 mm | - | 0 W/m² | - |
| 1788492510 | 20° C | 68% | 1020 hPa | 0 mm | - | 0 W/m² | - |
| 1788491910 | 19.44° C | 68% | 1020.2 hPa | 0 mm | - | 0 W/m² | - |
| 1788491309 | 19.44° C | 69% | 1020.2 hPa | 0 mm | - | 0 W/m² | - |
| 1788490709 | 19.44° C | 69% | 1020.3 hPa | 0 mm | - | 0 W/m² | - |
* Rain latest hour (hover to see other rain measurements)
** Current wind speed in m/s (hover to see current wind gust speed)